This is the latest recevied weather packets stored in our database for station/object KC3ELT-10. If no packets are shown the sender has not sent any weather packets the latest 10 day(s).
| Time | Temp. | Humidity | Pressure | Rain* | Wind** | Luminosity | Snow |
|---|---|---|---|---|---|---|---|
| 1777901579 | 12.22° C | 53% | 1007.6 hPa | 0 mm | 1.79 m/s, 289° | - | - |
| 1777901279 | 12.22° C | 54% | 1007.8 hPa | 0 mm | 2.68 m/s, 279° | - | - |
| 1777900979 | 12.22° C | 53% | 1007.8 hPa | 0 mm | 0.45 m/s, 214° | - | - |
| 1777900679 | 12.22° C | 52% | 1007.8 hPa | 0 mm | 1.79 m/s, 262° | - | - |
| 1777900379 | 11.67° C | 54% | 1008 hPa | 0 mm | 2.24 m/s, 301° | - | - |
| 1777900079 | 11.67° C | 54% | 1008 hPa | 0 mm | 0.45 m/s, 282° | - | - |
| 1777899779 | 11.11° C | 53% | 1008 hPa | 0 mm | 0.45 m/s, 259° | - | - |
| 1777899479 | 11.11° C | 54% | 1008.2 hPa | 0 mm | 0.45 m/s, 168° | - | - |
| 1777899179 | 11.11° C | 54% | 1008.2 hPa | 0 mm | 2.24 m/s, 195° | - | - |
| 1777898879 | 10.56° C | 54% | 1008.2 hPa | 0 mm | 1.34 m/s, 285° | - | - |
| 1777898579 | 10.56° C | 54% | 1008.1 hPa | 0 mm | 1.34 m/s, 198° | - | - |
| 1777898279 | 10.56° C | 54% | 1008.1 hPa | 0 mm | 1.34 m/s, 260° | - | - |
| 1777897979 | 10° C | 55% | 1008.1 hPa | 0 mm | 1.34 m/s, 238° | - | - |
| 1777897679 | 10° C | 53% | 1008.2 hPa | 0 mm | 1.79 m/s, 230° | - | - |
| 1777897379 | 9.44° C | 54% | 1008.2 hPa | 0 mm | 1.79 m/s, 186° | - | - |
| 1777897079 | 9.44° C | 54% | 1008.2 hPa | 0 mm | 2.24 m/s, 255° | - | - |
| 1777896779 | 9.44° C | 53% | 1008.2 hPa | 0 mm | 1.34 m/s, 203° | - | - |
| 1777896479 | 9.44° C | 55% | 1008.2 hPa | 0 mm | 1.34 m/s, 197° | - | - |
| 1777896179 | 8.89° C | 56% | 1008.2 hPa | 0 mm | 1.79 m/s, 148° | - | - |
| 1777895879 | 8.89° C | 55% | 1008.3 hPa | 0 mm | 1.79 m/s, 198° | - | - |
| 1777895579 | 8.33° C | 56% | 1008.3 hPa | 0 mm | 0.45 m/s, 229° | - | - |
| 1777895279 | 7.78° C | 58% | 1008.3 hPa | 0 mm | 1.34 m/s, 181° | - | - |
| 1777894979 | 7.78° C | 58% | 1008.3 hPa | 0 mm | 0.89 m/s, 216° | - | - |
| 1777894679 | 7.78° C | 58% | 1008.3 hPa | 0 mm | 1.34 m/s, 174° | - | - |
| 1777894379 | 7.78° C | 59% | 1008.3 hPa | 0 mm | 0.89 m/s, 173° | - | - |
* Rain latest hour (hover to see other rain measurements)
** Current wind speed in m/s (hover to see current wind gust speed)